Theta_e
352 357 357 353 358 356 352 346 325 329 330 316 318 321 318 332 331 329 326 331 326 332 334 332 332 330 331 326 327 329 330 324 326 318 320 338 351 350 352 355 353 355 357 360 357 362 361 363 359 357 357 358 359 361 361 361 361 360 360 360 359 358 357 356 356 356 359 361 363 362 363 362 363 363 363 363 363 362 365 365 365 365 364 364 364 364 364 364 363 364 364 364 364 363 363 363 361
356 355 357 357 355 351 340 347 328 322 322 316 319 322 324 328 332 325 326 331 328 331 332 333 332 332 334 334 330 329 330 334 333 331 340 348 350 350 353 354 353 352 355 358 360 362 361 366 362 361 360 361 361 361 361 361 360 361 361 360 360 359 358 357 357 357 358 362 362 362 363 364 363 363 363 363 363 363 363 362 364 364 364 364 364 364 364 362 363 363 363 363 363 363 363 363 362
353 354 354 356 354 348 346 342 321 318 314 311 318 321 330 326 324 328 332 332 333 333 332 332 333 333 331 331 327 330 324 336 337 338 339 348 343 350 355 355 355 354 355 359 359 361 361 363 362 361 362 362 361 361 361 359 358 360 360 360 360 359 357 356 355 356 355 360 363 364 364 363 363 363 363 363 363 362 363 364 364 364 364 364 365 365 363 362 363 363 362 363 363 363 363 363 362
354 356 352 352 343 350 338 334 325 317 313 314 316 325 326 327 328 332 335 334 332 332 331 329 331 337 335 327 328 331 329 334 339 337 338 340 344 353 356 356 359 355 357 358 359 360 360 365 362 362 362 361 360 360 361 359 358 360 361 360 357 356 356 355 355 353 355 352 364 363 363 364 363 363 361 359 361 362 362 363 364 364 364 364 364 364 364 363 363 363 362 364 363 363 362 363 362
353 356 356 349 344 336 337 328 322 322 313 317 315 326 328 330 330 332 333 334 331 332 331 332 332 337 339 334 334 331 333 338 338 341 341 347 351 354 358 358 357 356 357 358 359 359 364 364 362 361 360 360 360 360 360 358 359 360 360 359 358 356 356 356 356 354 350 356 361 363 364 363 363 362 362 360 362 362 363 363 363 364 364 364 364 363 363 364 363 363 363 362 364 364 363 363 363
353 355 359 352 340 348 334 323 319 318 324 325 320 324 330 332 332 332 332 332 332 333 333 332 329 330 331 333 337 331 336 331 339 342 345 346 350 356 358 359 357 357 357 359 360 363 361 363 362 361 359 360 360 360 358 356 358 358 359 359 357 356 354 354 354 353 353 355 359 363 363 363 364 363 362 363 364 362 361 363 363 364 365 364 363 364 364 364 364 363 362 363 363 364 364 363 363
352 351 352 351 346 345 328 321 319 320 325 332 325 327 331 333 333 331 332 330 332 335 336 334 332 331 327 333 336 341 343 341 340 343 347 349 353 357 358 357 356 357 358 360 362 362 364 362 361 360 360 360 358 357 356 356 359 360 361 361 357 356 356 353 353 354 352 354 353 357 362 364 364 363 362 361 362 361 361 362 361 363 364 364 363 363 363 363 363 363 362 363 362 363 363 363 364
356 346 345 338 332 333 325 323 322 323 325 336 332 330 334 336 335 333 330 329 328 330 334 334 334 331 327 339 330 339 344 347 346 350 350 352 354 356 357 356 355 356 358 361 363 364 366 362 360 358 358 358 357 356 355 357 359 359 360 359 359 356 353 351 355 353 353 354 357 362 362 362 363 364 363 361 361 363 363 361 360 361 364 364 363 363 362 363 363 363 363 363 360 360 359 360 361
354 348 349 339 330 332 325 322 324 331 329 333 336 339 338 338 336 333 331 333 332 334 332 334 333 326 329 333 332 339 342 347 349 352 351 352 354 355 355 355 354 355 357 358 361 362 363 361 360 358 358 356 356 357 356 359 360 360 360 359 357 356 353 355 356 358 356 356 356 361 363 363 362 362 363 364 362 363 363 362 361 362 362 363 363 363 363 363 362 363 363 362 361 359 360 360 361
347 346 336 336 333 324 325 321 321 325 328 335 333 336 337 338 336 335 332 331 332 333 332 336 334 330 331 327 331 335 340 346 349 349 352 352 354 356 355 355 356 355 355 358 360 361 362 365 362 360 360 358 358 358 358 359 360 360 360 358 354 357 355 356 358 356 357 358 358 360 362 363 362 362 363 362 362 363 363 362 362 362 362 363 363 364 362 362 361 362 361 362 360 359 360 360 357
337 346 345 331 326 323 322 320 323 329 330 335 336 338 339 339 336 333 333 334 335 333 333 334 331 329 331 332 335 345 345 346 346 346 353 353 355 355 354 356 355 355 354 357 361 362 363 364 364 362 362 362 360 360 360 360 360 356 357 356 357 357 357 359 359 359 357 359 360 361 362 363 363 362 361 362 363 363 363 363 363 362 362 362 362 362 361 362 362 359 361 361 362 361 359 358 360
335 337 338 327 324 323 323 322 324 328 331 333 333 338 340 338 336 331 333 331 333 331 331 334 331 334 328 330 333 342 344 344 346 349 352 354 354 354 354 354 354 354 356 358 359 361 363 365 365 363 361 360 359 358 358 359 358 358 356 357 357 358 359 360 359 358 358 359 361 361 362 363 363 363 362 361 361 361 359 361 361 362 363 360 359 360 362 362 361 360 362 362 362 362 359 356 361
340 338 334 328 325 327 326 326 326 327 328 331 332 339 341 337 334 334 334 333 332 330 330 338 336 334 327 330 338 341 341 346 347 349 352 353 353 353 353 353 352 354 356 358 358 357 358 363 362 361 359 356 356 357 358 358 358 357 356 355 356 358 358 360 360 360 360 360 360 360 361 362 362 362 362 360 361 360 360 357 360 361 359 358 360 363 362 363 362 360 360 362 362 361 360 361 361
341 338 337 327 329 328 326 327 328 323 323 333 340 342 340 336 336 336 334 330 333 333 336 338 336 335 333 333 335 336 341 347 349 350 352 353 353 353 352 352 353 356 358 357 357 358 359 359 360 360 363 364 362 359 357 358 358 355 354 354 356 355 356 358 359 359 359 359 359 359 361 361 362 361 361 359 360 360 359 359 359 357 360 361 360 362 362 362 362 362 361 361 361 361 361 361 361
341 343 337 331 327 327 330 324 326 323 325 334 341 337 338 341 339 337 335 331 337 341 339 340 338 332 327 327 330 335 341 346 349 351 352 352 352 352 352 352 354 356 354 355 355 356 358 360 360 361 361 360 364 363 365 362 356 353 354 355 356 355 356 357 358 358 358 358 358 359 360 360 361 361 361 360 360 359 359 359 360 358 359 358 362 362 363 362 363 362 363 363 362 361 361 361 361
345 342 336 328 324 325 325 329 331 327 328 336 340 339 337 338 340 336 340 343 335 338 337 332 337 334 330 328 333 339 343 347 350 351 352 351 352 352 351 352 352 353 354 354 355 359 359 359 361 360 360 359 361 361 361 362 358 355 353 354 355 354 356 357 359 358 359 359 359 360 359 360 361 362 359 361 361 358 359 360 360 360 360 361 362 361 361 361 362 362 362 362 362 363 363 363 363
346 343 329 326 320 325 326 327 327 322 330 339 341 338 334 334 343 343 344 343 334 334 337 334 333 337 332 335 340 343 345 349 351 350 350 350 350 348 349 349 350 351 352 355 358 358 361 360 360 359 360 358 360 362 363 363 360 356 355 356 356 356 357 358 359 359 358 359 361 357 358 363 362 363 362 363 362 362 359 360 360 361 360 362 362 361 361 361 360 360 361 363 363 361 359 360 361
341 333 329 324 326 326 330 330 329 333 333 337 338 337 336 332 337 339 342 340 339 337 336 337 339 339 341 342 344 345 346 346 348 346 345 345 346 344 344 346 346 347 351 353 356 358 359 361 360 359 359 360 360 360 362 362 360 360 358 359 360 360 357 358 361 363 359 364 358 362 361 359 359 361 362 362 366 362 361 360 360 359 360 362 361 361 361 361 361 362 362 362 360 358 358 360 361
337 332 329 324 329 329 337 338 339 335 334 339 338 338 337 335 338 338 334 334 335 334 333 334 335 339 342 342 343 344 345 345 344 343 342 342 342 340 341 345 347 347 350 352 353 357 359 359 361 359 360 361 360 360 360 362 361 360 357 356 358 358 359 362 364 363 365 365 365 360 359 359 357 360 365 363 365 360 360 357 359 360 361 361 362 362 362 361 361 360 360 359 357 357 361 356 357
335 329 324 327 332 334 337 340 340 341 343 338 337 338 337 339 339 342 335 331 334 330 329 331 333 333 336 340 342 343 344 343 344 343 342 342 342 341 342 343 346 349 350 351 354 356 358 358 359 360 360 361 360 359 360 361 360 361 359 361 358 360 359 361 362 363 363 363 363 360 358 358 358 360 360 361 362 365 362 359 361 362 363 362 361 359 360 359 359 360 359 357 361 363 358 357 354
333 329 327 330 335 332 339 342 342 342 343 341 338 338 338 339 340 339 337 330 331 333 331 330 331 334 336 339 341 342 342 342 343 343 342 341 341 342 344 346 347 349 352 353 355 354 357 357 357 358 360 359 360 359 361 361 361 359 358 356 356 356 356 358 358 360 361 362 362 360 358 357 359 360 361 363 365 365 363 365 363 364 365 361 362 360 358 362 361 357 358 360 356 356 355 356 355
328 329 330 331 335 331 344 343 343 341 344 344 340 334 337 342 341 337 336 329 327 333 335 334 335 336 336 338 339 341 341 342 343 343 341 339 340 343 346 348 349 351 352 352 353 355 356 357 358 357 357 360 359 360 360 361 361 360 359 360 360 360 360 359 360 359 359 361 361 360 359 359 359 358 361 361 361 362 361 361 361 362 359 357 360 356 354 357 357 355 356 355 352 353 352 355 355
323 334 331 334 336 333 341 342 344 343 342 340 338 339 342 339 336 339 337 335 337 340 337 337 337 338 339 340 340 339 340 341 342 341 339 339 342 344 346 347 348 348 349 353 355 355 356 356 358 358 356 361 359 359 358 361 360 359 359 360 359 359 360 359 358 358 361 363 362 363 362 361 362 362 361 360 360 364 361 361 359 359 357 355 356 353 355 357 354 354 355 357 356 354 352 355 357
326 324 332 337 338 336 341 340 343 341 342 341 343 345 338 336 332 339 336 341 342 340 340 338 340 340 340 338 338 338 340 342 342 340 339 343 345 345 347 347 349 351 352 351 354 355 355 354 357 359 358 359 359 359 358 356 359 358 358 358 359 357 357 356 356 358 362 362 363 364 363 362 360 361 363 363 363 364 361 362 361 354 356 354 359 356 355 356 356 356 359 357 355 356 354 354 355
326 327 333 336 337 339 340 338 339 342 343 345 345 337 336 337 337 337 336 339 340 340 339 339 340 340 339 338 338 340 342 342 339 339 343 347 348 349 350 351 351 350 349 350 353 354 353 355 357 358 357 358 359 357 356 359 359 360 359 359 360 357 358 358 359 360 360 361 363 366 365 360 359 360 361 362 363 362 360 357 354 354 357 357 361 358 360 357 355 356 357 355 358 359 357 355 356
328 331 336 337 335 338 339 338 339 339 340 343 339 337 338 338 339 334 338 339 340 339 338 339 339 338 338 338 340 342 342 340 339 340 345 348 349 349 349 350 350 349 349 352 352 355 354 352 354 356 357 358 358 358 357 359 360 358 359 360 360 361 359 360 362 359 361 360 362 366 364 360 358 358 361 362 362 358 357 357 355 355 355 360 359 359 358 357 355 354 356 357 356 359 359 357 356
333 335 335 337 336 337 339 337 338 340 340 340 334 331 332 337 335 326 338 340 341 338 337 339 338 337 337 338 341 343 341 338 339 343 347 349 349 349 349 350 349 350 351 351 352 355 355 353 353 357 358 360 359 356 356 357 360 358 360 361 362 362 361 362 362 360 360 360 364 367 366 363 359 358 360 362 359 357 357 356 355 358 357 357 360 357 360 361 358 355 356 356 360 362 358 356 356
337 336 336 337 338 338 339 338 338 340 334 338 334 329 333 332 331 330 337 340 340 336 336 337 337 338 337 340 342 344 340 340 343 344 343 346 346 348 348 350 349 350 350 351 354 356 353 352 352 356 357 359 359 357 357 355 356 357 360 361 360 361 363 360 361 360 360 361 363 364 365 363 363 360 362 359 358 355 353 354 358 360 358 359 361 360 360 361 360 359 362 362 363 362 360 356 359
337 337 330 336 338 335 338 335 336 336 330 336 335 328 325 326 327 335 339 342 340 336 335 336 337 338 339 340 342 343 341 342 345 343 343 346 348 349 348 350 351 350 351 352 355 354 352 353 353 355 358 359 359 356 354 356 356 356 357 358 359 358 360 360 359 359 361 361 363 362 364 365 365 360 361 360 359 354 356 357 358 361 362 363 362 361 361 362 359 358 359 361 360 363 358 356 353
338 336 333 332 332 328 337 341 339 335 334 335 333 313 318 326 332 336 341 341 339 336 335 335 336 338 340 340 340 341 343 344 344 343 344 345 348 348 349 350 352 352 352 353 353 353 353 354 354 355 357 357 358 356 356 355 356 357 358 358 360 360 358 357 358 360 360 360 362 363 363 364 361 361 363 361 357 355 358 360 360 360 363 363 362 362 356 358 356 356 355 358 357 359 354 356 351
328 329 330 322 319 323 337 337 336 332 335 336 334 317 319 328 332 337 340 342 338 334 334 335 335 336 339 339 340 340 343 345 343 343 344 345 348 350 351 351 352 353 353 353 352 354 353 355 353 354 356 357 357 357 356 357 358 357 357 357 359 361 359 358 356 358 357 358 359 359 361 362 363 362 363 362 360 357 356 359 360 361 364 364 359 361 360 359 358 357 356 358 359 357 355 353 352
327 320 317 323 318 324 333 340 336 328 332 337 334 317 321 326 330 337 340 341 339 334 333 334 335 336 338 339 339 339 341 344 344 342 343 345 347 349 350 350 351 352 352 354 353 354 353 354 355 353 355 356 357 357 358 358 356 358 358 356 359 360 358 358 357 358 359 358 359 361 363 363 363 365 365 364 358 361 358 359 359 363 364 364 364 364 364 359 359 359 360 361 356 354 355 351 353
323 317 316 318 319 322 328 335 340 336 333 336 331 318 322 322 331 336 340 340 339 335 334 334 334 335 336 338 338 339 340 341 343 342 343 345 347 350 351 352 352 353 354 353 354 354 353 354 354 352 353 354 358 355 358 359 358 358 358 356 356 359 357 356 357 358 357 358 356 357 362 362 364 365 365 366 364 361 359 360 361 362 366 365 363 362 359 358 359 353 362 362 362 357 353 349 350
314 317 316 318 318 317 319 330 338 339 336 327 330 327 324 328 332 338 339 340 339 336 335 334 336 335 336 337 337 338 339 339 340 343 343 346 347 350 351 354 354 354 354 354 355 354 353 354 354 353 353 355 356 357 358 358 358 358 358 359 360 356 356 355 356 357 357 356 358 358 362 362 364 364 365 365 366 364 364 362 363 363 366 366 366 361 360 359 361 359 359 362 361 360 355 352 349
310 314 315 318 320 320 321 319 329 336 332 329 328 326 328 331 334 336 338 340 339 336 336 335 335 335 336 336 336 338 338 338 339 343 343 345 347 349 352 354 355 355 354 355 356 357 357 356 357 356 354 354 357 358 359 359 358 359 357 358 358 358 359 356 355 357 356 355 355 361 364 361 362 364 365 366 366 362 362 362 364 366 366 366 365 360 359 362 363 362 363 361 363 361 357 357 354
312 315 317 317 316 318 319 326 334 332 329 328 327 325 328 331 333 335 337 339 337 337 339 338 337 337 337 337 336 337 337 338 340 342 343 345 347 349 351 354 355 355 355 356 358 358 359 358 358 357 356 354 357 358 359 357 356 354 353 355 354 356 358 357 358 356 357 357 358 359 362 362 362 364 365 366 367 364 363 362 364 364 366 365 364 360 358 359 362 362 362 358 360 358 360 357 354
314 315 316 318 316 320 321 324 330 336 328 326 326 327 327 331 333 334 335 338 337 337 337 337 337 337 337 336 336 337 338 338 340 342 343 345 345 349 352 354 354 355 356 356 356 356 358 357 358 356 357 358 356 355 357 355 352 355 355 351 350 352 357 357 357 358 356 356 358 357 362 358 363 364 365 365 364 363 365 363 364 365 366 365 363 362 361 362 366 364 362 366 356 356 354 353 352
310 310 312 315 314 312 314 321 329 335 327 322 329 325 326 331 334 334 335 335 334 335 336 337 337 337 337 337 336 338 338 339 341 341 342 344 345 348 351 353 355 353 355 356 356 356 358 358 358 357 357 358 356 355 356 357 357 353 352 352 351 352 355 354 355 358 355 355 361 362 361 360 362 365 365 368 368 365 364 362 363 365 365 365 365 366 366 364 366 363 360 358 360 353 354 352 353
310 309 310 309 311 315 322 326 327 333 328 319 323 322 325 331 333 335 333 334 335 336 337 338 338 338 338 337 337 338 337 336 339 340 342 342 344 346 349 352 353 355 355 355 357 356 357 359 359 361 359 357 356 356 356 357 358 360 356 355 355 353 356 358 356 357 358 353 356 359 361 364 363 365 367 366 367 364 364 364 363 363 366 366 364 363 363 363 363 360 361 356 355 357 354 355 358
309 308 308 307 312 310 313 322 328 331 323 317 319 319 322 330 335 335 336 335 336 339 340 341 341 339 338 337 338 338 337 336 337 340 339 341 343 346 348 351 353 354 354 354 355 356 355 359 362 362 359 358 358 359 358 358 359 360 362 361 361 359 357 360 363 361 359 355 351 356 364 365 364 364 364 363 364 364 365 364 364 364 369 369 363 364 363 361 363 362 361 362 359 354 351 352 354
309 308 308 308 309 312 312 316 324 326 330 329 324 322 321 325 327 331 335 337 338 338 339 339 340 342 341 340 338 338 336 337 337 338 339 340 342 344 347 350 352 351 352 353 354 355 353 356 361 363 360 358 359 360 359 359 360 360 360 360 360 361 360 357 358 354 357 359 353 355 358 363 363 364 364 365 364 366 367 365 366 367 367 365 363 362 361 360 361 363 363 364 361 355 353 352 355
307 309 309 309 308 308 314 316 315 316 317 322 317 308 313 321 323 324 331 334 333 337 336 336 338 339 340 338 338 339 339 338 338 338 339 340 341 344 347 349 349 350 351 353 354 355 356 357 360 363 362 360 358 361 361 360 359 357 355 353 351 351 350 350 348 350 351 352 351 353 360 359 361 364 365 365 366 366 366 369 369 368 366 364 363 362 361 360 361 364 366 363 362 364 361 355 352
304 307 310 310 309 309 312 313 313 307 307 320 321 309 308 321 321 323 328 332 332 336 334 334 337 339 339 339 338 338 338 337 338 339 340 339 341 342 345 348 349 348 350 352 353 356 357 358 360 361 362 361 359 362 362 360 358 356 356 352 350 349 347 348 353 352 350 353 355 356 359 359 362 361 362 364 367 368 370 370 371 367 366 365 364 363 360 359 360 363 366 366 364 365 365 360 353
302 309 310 309 308 309 311 312 312 310 314 315 320 318 312 312 321 326 328 326 328 330 331 332 335 338 339 338 338 339 338 338 337 338 340 341 342 342 343 346 347 347 350 351 351 354 358 361 361 360 362 361 361 362 361 361 358 357 357 353 350 349 347 349 353 354 355 355 355 358 357 357 361 361 362 365 368 368 369 369 370 369 367 366 364 362 361 362 365 368 366 368 367 367 366 359 356
306 310 309 308 309 310 311 312 311 312 310 307 316 321 312 312 322 327 328 324 326 327 330 332 335 336 338 339 338 340 339 340 339 337 338 340 341 342 343 344 346 347 349 350 351 354 359 362 363 361 361 362 361 363 362 360 360 358 357 354 352 352 350 351 354 355 354 357 356 356 358 356 359 362 361 363 364 367 368 367 370 369 366 365 363 363 362 362 363 366 366 366 365 367 366 364 363
310 312 312 311 312 313 311 311 311 312 309 304 311 317 308 308 317 322 327 325 326 327 329 332 335 336 337 338 339 339 340 341 339 338 339 340 342 343 344 345 345 347 348 350 351 353 358 362 363 362 361 360 361 364 362 360 361 361 358 356 355 353 353 353 351 352 355 356 355 356 358 358 355 358 361 363 366 365 367 369 367 366 366 363 362 364 365 365 364 366 365 363 367 366 367 364 363
316 314 313 312 312 312 313 313 313 308 303 306 313 314 313 306 317 319 320 320 326 327 331 334 337 336 336 340 340 339 339 339 339 338 339 340 341 343 344 344 345 347 348 350 350 352 357 360 362 361 362 360 361 362 363 361 361 361 359 358 357 356 355 353 352 353 354 355 354 354 355 358 357 355 354 359 360 362 363 366 365 363 366 365 363 365 364 360 361 363 364 367 367 367 365 366 362
314 311 309 310 310 312 310 309 311 302 300 309 315 317 317 305 311 323 325 330 330 329 328 330 331 336 339 340 340 339 339 339 339 339 339 340 341 342 344 344 345 347 348 350 350 351 354 358 361 362 363 361 361 361 361 360 359 360 361 360 359 357 357 352 354 353 354 354 353 353 355 355 356 354 356 354 357 355 360 361 364 364 366 367 365 365 365 364 363 364 365 366 367 367 368 365 363
311 310 309 301 303 303 299 303 298 300 300 308 314 314 313 315 315 325 325 330 332 333 333 333 335 335 336 338 340 341 339 339 340 339 339 339 340 341 342 344 346 348 349 351 350 350 353 356 360 361 363 363 362 361 360 361 361 361 360 360 359 358 357 356 355 354 355 353 352 352 355 355 356 356 354 351 352 357 359 361 363 363 364 366 368 368 366 366 368 365 365 365 366 366 366 368 363
308 307 305 300 297 296 293 298 302 301 305 312 314 317 309 316 323 329 328 331 334 334 337 336 337 337 338 338 340 341 341 339 340 339 339 339 340 341 343 345 346 348 349 350 351 351 353 353 359 360 363 364 364 361 360 361 361 361 362 361 359 358 357 357 355 354 353 354 353 353 352 351 354 355 354 355 352 352 354 358 361 362 364 366 370 370 368 369 370 368 367 366 364 367 368 367 365
308 310 307 304 302 298 295 297 295 298 301 306 314 309 308 308 316 328 330 333 334 336 337 337 335 338 339 341 339 343 342 341 340 341 340 339 341 343 343 346 347 349 349 348 350 353 354 354 357 360 361 364 364 362 361 361 360 361 362 362 361 359 357 357 355 355 355 354 351 352 353 350 350 353 353 357 360 357 356 358 359 360 361 364 367 369 364 368 370 369 368 369 369 367 367 366 363
310 310 310 304 302 307 298 303 302 301 301 302 309 307 314 314 326 329 332 333 333 335 336 337 335 337 339 337 337 339 342 342 341 341 340 341 343 345 344 347 348 349 351 349 350 353 354 356 359 359 360 363 363 364 362 361 361 361 363 363 362 361 360 358 357 358 359 357 355 352 354 356 354 355 357 359 359 361 359 358 361 360 362 361 365 368 368 366 369 367 368 370 368 363 366 367 365
307 307 302 305 313 308 304 304 305 305 301 298 307 310 314 323 323 325 330 330 331 333 335 336 335 335 339 338 338 339 341 342 341 340 340 341 342 345 345 347 348 348 348 349 352 354 356 357 357 359 359 361 361 363 361 361 362 362 362 363 361 361 359 357 355 357 356 358 358 356 353 353 354 357 355 359 359 362 361 360 359 357 359 361 364 367 366 367 368 367 365 368 367 364 366 367 365
308 302 306 311 314 311 305 297 302 300 295 298 304 302 306 310 303 325 326 325 328 331 333 334 335 335 334 337 339 339 341 343 346 343 343 343 343 344 346 346 347 349 348 349 353 354 357 357 358 357 357 358 358 360 358 359 361 361 363 363 363 362 359 357 356 356 356 357 358 358 356 353 354 355 356 356 360 359 361 362 361 359 359 361 362 363 365 366 368 365 365 370 366 369 367 369 367
309 307 314 304 301 300 305 302 294 295 294 297 300 303 306 311 311 319 320 323 325 329 332 333 332 334 335 335 338 342 342 344 342 339 340 342 343 344 347 347 350 352 352 350 352 354 355 357 357 354 354 355 355 355 357 358 359 358 359 362 361 361 360 359 357 359 360 358 356 356 357 356 357 359 359 361 361 359 360 362 364 361 359 360 363 363 365 367 368 366 365 364 366 370 368 366 367
313 313 310 313 308 304 301 302 303 301 296 297 298 302 302 317 316 319 321 326 327 327 329 330 331 332 332 334 336 338 340 341 343 342 341 341 342 343 344 345 348 351 352 351 352 353 352 355 355 354 356 357 356 354 356 356 357 357 357 360 362 363 362 359 360 360 358 359 359 358 359 358 358 359 359 360 360 359 358 359 359 357 355 357 359 362 362 364 365 365 363 360 362 367 368 368 364
306 307 306 307 306 310 308 307 303 299 298 297 297 295 303 316 324 322 323 327 328 328 329 331 330 331 333 333 335 337 339 341 345 345 346 344 342 341 343 345 348 351 352 351 350 353 354 356 355 357 357 358 356 354 354 357 357 357 358 358 358 360 360 359 358 358 359 360 360 361 359 360 362 360 360 359 360 360 359 359 358 359 356 358 363 363 363 365 365 366 365 365 366 368 370 367 367
309 307 306 307 304 302 298 297 305 303 299 295 296 295 304 319 326 326 326 328 328 330 330 329 328 331 334 335 336 338 339 342 343 345 345 345 343 342 344 346 347 349 350 352 351 354 355 355 356 357 358 358 359 355 356 358 358 357 357 357 358 358 360 359 357 356 357 357 358 360 362 362 360 362 362 359 362 359 359 358 359 359 360 358 364 367 362 363 365 364 365 361 363 366 369 367 366
Wind_Speed
8 7 5 3 3 3 3 3 2 4 4 6 6 3 7 4 7 8 9 8 8 6 4 10 9 8 2 2 5 6 6 2 7 1 4 6 8 10 8 8 10 10 11 10 10 10 13 15 16 19 17 15 13 12 13 13 13 13 12 11 13 12 11 8 7 5 6 10 11 12 12 13 13 13 12 13 14 15 15 15 15 15 16 16 16 16 16 15 15 14 15 15 16 16 15 15 15
7 4 3 2 3 3 2 0 4 4 4 6 7 7 8 7 4 9 9 4 6 7 8 9 9 4 3 3 4 3 8 10 10 11 9 10 11 9 10 10 9 10 9 9 9 9 11 13 13 13 14 13 13 12 11 12 12 13 12 12 12 12 10 8 5 3 3 10 12 12 13 13 13 13 13 13 15 14 13 15 15 15 15 15 16 16 15 16 15 15 15 14 14 15 15 15 14
5 5 3 3 3 4 2 4 2 4 5 7 7 8 5 6 8 9 7 7 10 10 11 9 8 3 6 3 6 5 8 8 11 12 9 11 13 8 10 10 9 10 9 7 8 9 9 11 12 12 13 12 12 11 12 11 12 11 11 11 11 12 11 8 6 4 0 7 12 13 13 13 14 13 13 12 13 14 15 15 16 16 15 15 15 15 15 15 14 14 15 14 12 13 14 14 12
4 2 2 3 3 4 4 4 2 2 4 7 7 6 6 8 10 9 7 9 10 12 11 10 4 4 5 5 6 3 8 7 9 12 10 10 8 11 10 11 11 8 8 6 7 9 9 12 12 11 12 12 11 10 11 11 11 11 11 12 10 10 11 9 8 5 6 1 12 12 13 14 13 14 14 13 9 12 13 15 15 14 15 14 15 14 15 15 14 14 14 14 13 12 13 12 11
4 2 3 3 5 4 4 1 1 1 6 3 7 7 7 8 10 9 8 8 10 10 9 7 5 4 7 8 5 3 6 10 10 9 10 9 12 12 11 11 9 9 8 8 7 9 10 14 12 11 11 11 10 8 10 11 11 10 11 11 10 9 9 9 8 6 3 8 10 14 13 13 13 13 14 13 12 13 13 13 14 14 14 13 13 13 14 14 14 14 13 13 13 12 12 12 11
3 2 3 4 3 5 4 3 3 5 6 4 8 7 8 9 10 10 10 8 9 9 7 4 4 7 6 8 7 8 4 5 9 9 10 11 14 13 13 10 9 9 9 8 7 8 10 13 13 11 10 11 10 9 8 8 10 10 10 10 9 9 7 6 5 5 7 10 10 13 14 12 12 13 13 13 14 14 13 12 14 14 13 12 12 13 13 13 13 13 12 12 12 11 10 10 11
2 3 4 4 4 3 3 2 5 6 6 4 8 8 7 9 10 11 10 10 8 7 4 4 7 9 7 7 10 8 7 11 7 9 8 14 14 13 12 10 10 10 10 8 7 8 11 12 11 10 10 10 9 8 7 6 10 11 9 11 11 9 8 5 5 9 3 9 3 10 9 12 12 12 12 12 14 15 16 13 11 11 13 12 11 13 13 13 13 12 12 11 10 10 10 9 9
1 4 1 4 4 4 2 4 5 3 6 5 6 8 7 8 9 9 10 8 9 6 6 4 3 7 8 2 6 6 7 6 12 10 16 14 13 12 11 11 10 11 10 8 8 8 11 10 9 9 9 8 9 8 7 8 8 10 9 9 12 12 11 5 10 9 13 9 7 11 11 12 12 12 12 13 13 14 15 15 11 9 11 11 11 12 13 13 13 12 12 13 12 10 9 9 7
3 5 2 5 3 2 2 4 6 5 8 6 7 7 7 7 6 8 8 3 9 5 7 6 3 2 7 10 9 8 8 10 12 14 14 15 14 12 8 10 10 10 10 9 8 9 9 10 9 8 8 7 7 5 6 7 7 7 9 9 9 14 10 11 11 13 10 11 4 6 11 11 12 12 12 12 12 14 14 14 13 12 11 11 12 12 12 13 13 12 12 12 13 11 9 10 7
3 4 2 4 3 4 3 5 5 6 7 5 7 7 6 5 6 4 5 6 5 7 7 5 3 8 9 12 11 7 8 11 13 13 13 14 13 11 11 11 11 11 10 10 8 8 8 12 11 10 10 7 6 6 7 7 7 7 9 9 8 10 15 13 12 11 9 9 8 7 11 11 10 11 11 12 13 12 13 13 13 12 12 12 11 12 12 12 13 13 11 12 12 11 9 10 7
4 3 2 4 4 3 3 6 7 6 7 6 7 6 5 4 5 5 3 5 6 5 8 6 8 9 8 10 8 7 10 12 12 13 12 12 11 11 10 9 10 10 10 10 9 9 9 9 12 12 12 11 9 10 11 10 10 6 9 5 8 10 11 12 11 12 11 10 9 9 10 11 10 10 10 11 12 12 12 11 11 11 11 10 11 12 12 12 13 15 13 11 12 11 10 7 6
3 2 3 4 2 1 5 6 7 7 7 7 7 7 4 4 5 5 5 5 5 6 7 6 6 8 8 9 7 8 11 11 12 12 11 11 10 10 10 9 9 9 9 9 9 9 8 8 8 10 9 9 8 6 7 9 10 12 13 12 12 10 11 11 11 12 12 12 10 9 11 11 10 10 9 11 11 12 10 9 10 11 10 10 7 11 12 12 13 15 12 13 12 12 11 6 5
5 2 4 5 3 1 6 6 6 7 7 6 8 6 5 5 5 3 5 4 5 5 6 3 8 4 8 8 8 10 12 11 11 11 11 9 10 9 8 9 9 9 8 7 8 10 10 8 7 8 9 7 7 6 7 6 5 9 13 7 7 9 10 9 10 11 12 11 10 9 7 10 10 10 9 11 12 11 12 8 9 11 11 10 6 8 11 11 12 12 13 12 13 13 9 9 9
5 3 5 1 1 2 2 6 6 5 5 8 5 8 6 5 3 3 3 6 6 3 5 6 5 5 10 10 8 9 10 12 12 12 9 10 9 9 10 9 9 8 8 7 7 7 6 6 6 7 7 6 6 6 7 7 7 8 10 7 8 7 8 8 8 9 9 10 11 7 9 9 9 11 10 12 12 10 9 10 12 8 7 9 10 10 11 11 11 12 12 11 12 10 9 9 8
4 2 5 1 1 3 2 3 5 5 7 8 7 9 6 3 3 2 3 6 6 3 5 3 4 7 7 9 9 10 12 13 13 11 11 10 10 9 9 8 8 7 6 6 6 6 6 5 7 6 5 5 4 3 4 6 8 11 6 10 7 9 7 7 9 8 10 10 10 8 10 9 10 9 10 14 13 11 9 9 11 9 7 9 10 11 10 10 10 10 10 10 9 9 9 9 8
3 5 3 2 3 3 6 1 3 5 8 7 8 8 6 5 3 4 4 4 7 6 3 4 3 3 6 5 13 15 15 15 12 12 11 11 10 9 8 7 7 6 5 5 5 5 5 5 5 5 6 5 4 4 5 6 9 15 9 9 8 8 8 9 9 9 10 10 11 11 10 9 8 7 11 10 13 12 9 8 7 9 6 9 11 10 9 9 9 8 8 8 8 8 8 7 7
3 2 4 2 5 5 6 2 3 2 6 7 10 9 7 7 5 5 2 2 8 7 3 6 4 2 5 7 16 18 16 14 13 14 12 10 8 7 6 6 5 5 4 5 4 4 5 6 6 5 6 6 6 6 6 6 8 13 8 9 10 9 8 9 9 10 9 10 10 10 9 7 6 6 8 8 11 8 8 8 7 8 6 10 10 9 9 8 8 8 7 7 7 6 5 6 7
4 4 4 3 4 2 5 2 4 5 3 8 9 9 7 8 7 6 6 5 6 7 6 6 7 7 11 16 17 17 16 15 14 14 11 9 7 7 7 6 6 5 5 5 5 5 4 5 6 6 6 7 5 5 4 5 6 5 8 8 7 8 8 8 7 6 8 7 10 8 6 4 5 5 6 6 7 8 8 8 7 6 6 10 9 8 8 8 8 7 6 5 5 4 6 6 8
5 2 4 6 4 5 2 4 3 1 3 7 8 8 7 8 10 8 6 8 8 8 8 8 11 12 14 16 18 17 16 15 14 12 12 11 8 8 7 6 5 5 5 5 4 4 3 4 4 5 7 7 6 5 4 4 7 6 8 6 5 7 8 6 5 5 5 6 6 8 5 5 6 5 4 5 5 7 9 6 7 8 9 9 8 8 7 7 7 6 5 5 5 6 7 2 3
2 6 2 5 4 4 4 2 2 2 3 8 9 8 8 9 8 9 6 8 7 7 9 10 11 14 16 17 17 17 15 14 13 12 12 10 9 8 7 7 6 5 5 4 5 4 4 3 5 5 7 7 6 5 5 5 5 3 6 5 5 4 5 4 5 5 5 6 6 7 5 6 6 5 7 9 8 6 8 9 10 10 10 8 7 7 8 6 7 7 7 8 10 6 2 3 3
3 5 3 5 3 1 6 3 2 1 2 6 8 8 7 10 7 9 7 7 6 5 7 10 12 16 17 17 17 16 15 14 13 12 11 9 9 7 6 6 6 5 4 4 4 4 3 4 5 5 6 6 6 6 6 5 5 5 5 7 6 5 6 5 5 4 5 6 7 8 7 6 6 4 4 4 4 4 5 6 7 6 5 5 6 3 4 5 7 5 6 7 3 4 3 2 1
4 3 4 2 0 3 5 4 2 1 2 5 8 11 9 8 7 9 9 3 3 5 6 8 12 15 18 18 17 15 15 14 13 12 11 10 9 8 7 6 6 5 4 4 3 4 4 4 4 5 5 6 6 5 6 6 5 5 5 4 5 5 6 5 6 6 6 5 7 8 10 6 6 5 5 5 6 6 5 5 4 4 4 4 4 4 4 4 4 4 3 2 1 3 3 3 2
4 4 1 2 3 4 4 4 2 3 5 8 9 9 8 10 7 8 9 2 3 1 7 9 12 14 15 15 15 15 15 14 13 12 11 10 9 8 7 6 6 5 5 4 4 3 3 4 4 4 5 6 6 6 6 5 5 5 5 5 5 5 4 5 5 5 5 5 6 7 7 9 8 6 7 6 5 4 5 4 4 4 4 4 3 4 4 4 3 3 3 3 1 1 3 2 1
5 2 3 2 2 4 4 5 4 6 5 8 7 7 9 11 9 7 8 6 4 6 8 10 12 14 15 15 14 14 14 13 12 11 10 9 9 8 7 7 6 5 4 5 4 4 4 5 4 4 5 6 6 6 6 6 6 6 6 6 5 5 5 5 5 4 5 6 6 6 6 6 7 7 6 6 5 4 4 4 4 4 4 4 3 4 4 4 3 2 3 3 2 2 2 2 3
3 1 1 3 3 4 5 6 6 5 6 3 8 8 10 8 5 9 7 5 6 8 9 11 13 14 14 13 13 13 13 12 12 11 9 8 8 8 7 5 6 6 6 6 4 4 4 4 5 5 5 6 5 5 6 5 6 6 7 6 6 7 5 5 6 6 6 6 6 6 5 6 6 7 6 6 5 4 4 4 4 4 4 4 4 4 4 3 3 2 2 2 3 1 1 3 1
1 3 1 3 5 4 3 3 4 5 3 5 10 9 7 8 5 9 6 4 7 10 11 12 13 14 14 13 12 13 12 12 12 11 9 8 9 9 7 6 6 6 7 6 6 4 5 5 5 6 5 5 6 5 5 5 5 6 6 6 7 7 6 6 8 7 6 6 6 5 4 4 6 6 6 4 4 5 5 4 4 4 4 3 4 4 3 3 3 2 2 2 3 2 2 3 2
1 2 2 3 3 5 4 4 2 2 4 7 8 9 8 8 5 4 4 7 9 10 11 12 12 13 13 13 11 11 12 12 12 10 9 8 8 8 7 7 6 6 7 7 6 5 5 5 6 6 5 5 5 5 5 6 6 6 6 6 6 6 7 7 6 6 6 6 6 6 4 4 4 5 5 4 4 5 4 4 4 4 4 4 3 4 3 3 2 2 3 2 3 3 2 2 2
3 3 4 2 2 4 5 4 5 2 2 2 10 10 10 6 4 1 5 8 10 11 11 12 11 12 12 13 11 9 10 11 9 9 9 9 7 7 8 6 7 7 7 7 5 5 6 5 7 7 6 5 5 6 5 6 6 7 7 6 6 7 6 6 6 6 6 6 7 6 5 4 4 5 5 5 5 4 5 5 4 3 4 3 2 3 2 2 2 2 2 2 1 1 1 2 0
3 4 2 3 3 5 7 6 4 2 2 8 11 12 10 6 4 3 9 8 9 10 11 11 11 11 11 12 10 8 9 10 9 8 9 7 7 6 8 7 7 7 6 7 7 7 7 6 6 6 7 6 5 6 6 5 6 6 7 7 7 7 6 6 6 6 7 7 6 6 5 5 4 5 4 4 5 5 5 4 4 4 3 2 3 3 3 1 2 2 3 1 1 1 1 2 1
4 5 3 4 6 6 9 6 5 6 5 12 10 6 8 8 6 8 10 9 9 10 10 11 10 11 10 11 10 9 9 9 9 8 7 7 6 7 7 8 7 6 6 6 8 8 6 4 5 5 7 6 6 6 5 5 5 6 6 6 6 6 6 6 6 6 7 7 7 6 6 5 4 4 4 4 4 5 5 3 3 3 3 2 2 1 2 2 2 1 2 0 2 1 2 2 2
4 1 4 4 2 4 6 6 7 9 6 11 5 1 6 9 6 7 7 8 10 10 10 10 10 10 10 10 10 10 9 8 9 9 8 8 7 7 8 8 7 7 7 7 8 8 7 5 4 5 6 7 6 6 5 6 5 6 6 6 6 5 6 6 7 7 6 6 6 6 6 5 5 4 4 3 3 4 5 4 3 3 3 1 2 2 0 1 1 1 2 2 3 2 2 3 2
3 6 2 2 4 5 5 4 5 7 6 7 4 6 3 8 6 5 6 7 9 9 10 10 10 10 11 10 10 10 9 9 9 10 9 9 8 7 8 8 8 7 7 8 8 8 8 7 5 6 8 7 6 6 5 5 5 5 5 5 6 6 5 6 6 6 6 6 6 6 6 5 5 4 4 2 4 3 3 4 3 3 2 1 1 2 1 1 2 1 3 3 4 4 2 2 2
4 5 3 3 2 4 7 6 7 8 7 6 0 4 7 2 5 7 7 8 9 8 9 10 11 11 11 10 9 10 10 10 9 9 10 9 8 7 8 8 7 7 7 9 9 8 8 8 6 7 8 8 7 7 6 6 5 6 6 6 7 6 6 6 5 6 6 6 6 6 6 5 5 4 4 3 3 3 3 3 4 3 2 2 1 1 1 1 1 2 2 3 3 3 3 3 2
5 1 2 4 5 3 2 3 4 4 4 4 5 5 6 4 8 8 9 8 9 8 9 10 9 9 10 10 10 10 10 10 10 9 11 9 8 8 8 8 8 7 8 9 9 9 9 8 7 7 7 8 7 6 6 6 6 6 5 5 6 5 6 6 6 5 5 6 6 6 6 5 5 4 4 3 1 1 1 2 4 3 2 1 0 1 0 1 1 1 2 3 4 4 3 3 2
4 3 2 2 4 5 5 3 2 4 1 2 2 0 9 8 9 10 10 10 9 9 9 10 10 10 10 9 10 11 10 10 11 10 11 10 9 9 8 9 9 8 7 9 9 8 7 8 7 7 7 7 7 7 6 5 6 5 5 6 6 5 4 5 6 5 5 6 6 7 6 5 5 4 4 3 2 2 1 2 2 2 1 1 0 1 1 2 2 2 3 3 3 3 3 3 3
5 3 2 2 4 5 6 5 4 2 2 2 2 2 6 6 7 8 11 11 11 10 9 8 9 9 10 9 9 9 10 10 9 11 11 10 9 9 8 8 9 8 8 9 9 9 8 8 7 7 7 7 7 7 6 5 5 5 6 6 6 5 5 5 5 5 5 5 7 7 6 4 5 4 4 3 1 0 1 2 2 1 1 1 1 0 1 2 2 2 2 4 3 3 1 2 2
6 2 3 2 3 3 5 4 3 1 5 1 1 2 3 4 6 8 9 11 11 11 11 9 9 9 10 10 10 10 10 10 10 11 11 10 10 9 8 8 8 9 9 10 10 10 10 9 9 9 8 8 7 7 6 6 6 5 5 6 6 6 5 6 5 5 6 5 7 6 6 5 5 4 3 3 2 1 1 1 2 1 1 1 0 1 2 3 2 2 1 1 3 2 2 2 3
5 6 5 2 4 2 5 5 4 1 5 2 1 4 4 5 6 7 9 11 12 13 12 11 11 11 9 11 10 10 9 8 11 11 11 11 9 10 9 8 9 10 10 11 11 11 10 10 10 9 8 8 8 7 6 6 5 5 6 5 5 6 5 5 5 5 5 7 6 5 6 5 5 4 3 3 2 2 2 2 2 1 1 1 1 1 1 0 1 1 2 1 2 3 2 4 5
6 7 2 4 2 5 5 5 2 3 3 3 3 6 4 6 8 8 10 11 9 12 12 12 12 12 10 10 10 10 9 10 10 12 12 11 11 11 9 8 8 10 11 11 11 11 11 10 9 9 9 9 8 8 7 6 6 5 5 5 5 5 5 4 5 4 3 6 7 6 5 4 5 4 4 4 3 3 2 1 2 2 1 1 0 1 1 0 0 1 1 2 4 2 0 2 3
8 7 7 7 4 5 5 0 2 2 3 6 6 7 4 4 8 9 10 9 8 9 11 10 10 11 12 12 10 10 11 11 12 12 13 12 11 10 10 9 8 9 10 10 11 12 10 9 10 10 9 9 8 8 7 7 6 5 3 4 3 4 5 4 3 4 4 5 7 7 5 5 5 5 5 4 3 2 2 1 1 2 1 0 0 0 1 1 1 1 1 3 2 4 1 3 2
9 10 7 5 4 2 7 4 3 4 4 5 7 6 6 7 8 9 10 10 9 9 11 11 10 10 11 10 11 11 11 11 12 13 13 13 12 11 10 9 9 9 10 10 11 11 8 11 10 10 9 10 9 9 8 7 7 6 5 4 4 3 4 5 5 6 6 5 6 7 7 5 5 4 4 3 3 2 2 1 1 1 1 0 0 1 1 1 0 1 1 0 2 4 4 2 2
8 8 9 7 2 7 0 0 5 6 5 3 7 6 4 4 6 8 9 10 11 11 12 12 12 12 11 12 12 11 12 11 12 13 12 12 12 11 11 10 10 9 9 10 10 11 10 11 11 11 9 9 9 10 10 8 7 7 7 6 7 6 6 6 7 7 7 7 7 7 7 7 6 5 4 3 2 2 3 2 1 1 1 1 1 1 1 1 3 2 3 2 1 3 4 4 2
8 3 5 6 6 5 2 5 7 6 4 4 3 6 3 5 4 5 9 9 11 11 12 13 13 12 12 12 12 12 12 12 12 12 13 13 12 12 11 11 10 10 10 9 10 10 11 11 11 11 9 9 9 10 11 8 8 7 8 8 8 7 7 6 5 5 5 5 5 6 5 6 5 5 5 4 2 2 2 2 1 1 1 1 1 1 3 3 2 1 2 1 2 3 3 2 3
9 7 4 2 4 5 4 6 6 6 4 6 4 5 6 4 5 4 8 11 11 11 13 14 12 13 14 14 13 13 12 12 12 13 13 12 13 13 12 12 11 10 10 10 10 10 11 12 12 12 9 9 9 10 11 9 9 8 9 8 7 7 8 6 6 5 4 4 5 5 6 6 6 5 4 3 3 3 2 2 2 2 1 1 1 2 2 1 2 2 2 2 1 1 1 2 4
4 4 5 8 6 4 3 4 5 4 8 5 5 4 6 4 7 4 5 7 7 9 12 13 13 13 14 14 14 14 14 13 12 13 14 13 13 13 12 12 12 11 10 10 10 10 11 11 12 12 10 10 9 12 11 11 9 9 9 8 7 6 6 6 6 6 5 4 5 5 4 4 5 5 5 4 4 4 3 2 2 2 2 2 3 3 3 1 1 1 0 0 1 1 1 1 2
3 4 2 1 2 4 3 5 5 3 6 7 2 4 5 1 4 3 1 2 3 4 7 9 12 14 15 14 15 15 14 13 13 13 14 14 13 13 13 12 12 11 10 10 10 10 11 11 12 12 12 10 10 12 11 12 11 9 9 8 8 7 6 5 6 6 5 5 5 5 5 4 4 5 6 6 4 5 4 3 4 3 3 3 3 2 2 1 2 2 2 2 1 2 1 2 3
3 5 5 6 6 4 5 4 3 6 8 5 3 6 6 4 4 5 1 2 4 4 2 1 8 13 16 15 15 15 14 14 13 13 14 14 14 14 13 13 12 11 10 10 10 11 11 11 12 13 12 10 11 12 12 12 12 10 9 9 9 9 8 7 6 6 6 6 5 6 6 5 4 4 5 6 7 6 5 5 4 4 3 2 3 3 4 4 3 4 3 2 2 2 2 2 3
8 6 5 4 4 5 5 4 5 7 7 4 4 5 5 7 2 2 4 3 5 4 4 5 5 8 11 14 15 16 16 14 14 13 13 14 14 14 12 12 12 11 11 10 10 11 11 11 11 12 12 12 12 12 13 12 11 11 10 10 10 9 9 8 8 7 7 7 7 6 5 4 4 5 4 5 6 7 6 5 5 4 4 3 3 4 3 3 3 2 2 1 2 3 3 3 4
8 6 4 9 4 5 7 5 9 9 6 1 7 6 7 6 3 6 6 7 6 5 5 6 6 7 8 11 15 14 15 16 14 14 14 14 13 13 13 12 11 11 10 11 11 12 12 11 12 13 13 12 12 13 13 13 12 11 11 11 10 9 9 8 8 8 7 7 7 6 6 5 5 5 5 6 6 7 5 5 5 4 4 4 3 3 3 3 3 3 2 3 2 3 3 3 4
9 5 7 8 7 7 8 8 7 8 5 3 3 4 6 6 6 8 6 7 8 8 8 9 9 9 9 10 14 13 14 15 15 15 15 14 13 13 13 12 12 12 13 13 12 11 11 11 13 13 13 13 12 12 13 13 13 12 11 11 10 9 10 9 8 8 8 7 7 7 7 7 6 7 6 6 6 7 7 6 6 6 5 4 4 4 4 4 3 4 3 4 4 3 3 3 5
7 5 7 8 8 6 8 7 9 10 7 2 3 6 1 4 4 5 8 7 9 9 9 8 9 10 7 8 9 11 13 14 14 14 15 15 14 14 13 12 12 13 14 13 12 11 11 12 12 13 13 13 13 13 12 13 12 12 11 11 10 10 10 9 9 8 7 8 8 8 7 7 7 7 6 5 5 5 6 5 5 6 6 6 6 5 5 4 4 4 4 4 4 3 3 4 5
6 5 4 7 9 4 9 7 7 5 4 7 5 4 3 3 0 5 7 7 9 11 11 11 9 8 2 9 8 7 9 12 14 15 15 16 15 14 13 13 13 13 13 12 13 12 12 12 13 14 14 14 13 13 12 12 12 11 12 12 12 11 9 9 8 8 7 7 8 8 8 7 6 5 5 5 5 6 6 6 6 7 6 6 7 6 5 5 5 5 4 4 5 5 4 5 6
6 5 9 2 7 8 5 4 4 3 4 6 1 4 2 4 6 4 5 8 11 12 13 11 11 9 3 4 6 5 7 8 12 13 13 15 14 13 13 14 13 13 13 13 13 13 14 13 14 14 14 13 14 13 13 12 12 12 13 13 12 12 12 12 10 11 11 9 8 8 8 8 8 6 6 6 6 6 6 7 7 7 7 7 6 6 6 5 5 5 5 5 5 6 5 4 6
3 9 3 1 4 8 4 6 3 7 7 5 6 8 6 5 2 1 9 10 13 13 13 12 11 11 6 4 6 7 5 1 5 9 11 12 13 14 13 13 14 13 14 14 15 14 13 13 14 15 15 15 15 14 14 13 12 12 12 13 13 13 12 12 11 11 11 9 9 8 8 8 8 8 7 6 6 7 6 6 6 6 6 7 7 6 6 6 6 6 6 5 6 5 5 5 5
8 7 5 7 5 9 6 5 8 9 10 7 8 8 8 5 2 6 9 10 11 12 12 10 10 11 10 8 3 4 6 5 0 2 5 8 9 10 11 12 12 12 13 14 15 15 13 13 13 15 16 17 17 14 13 12 12 10 10 12 13 13 12 11 11 10 9 10 11 10 10 8 8 8 7 6 6 7 7 7 6 7 7 7 7 7 6 6 6 6 6 6 6 6 5 6 6
2 3 5 1 5 6 6 6 6 4 8 8 7 8 6 5 4 3 8 9 10 11 10 9 7 7 8 8 9 3 4 5 4 1 2 5 6 6 8 9 9 10 12 12 13 12 14 13 13 13 13 14 14 14 13 14 14 12 11 11 11 11 11 11 10 10 10 10 10 10 10 10 9 8 8 8 8 8 8 8 8 8 8 8 9 8 8 8 7 7 7 7 6 6 6 6 6
5 6 5 4 5 4 7 3 7 7 7 7 8 8 6 5 3 3 5 8 9 8 8 7 7 7 7 7 9 7 4 3 3 4 1 4 3 5 7 8 8 8 8 8 9 11 10 9 11 12 12 13 14 15 14 13 12 12 13 13 12 12 13 11 12 12 11 11 10 10 10 9 8 9 8 9 9 9 8 8 8 7 8 8 7 7 6 6 7 7 7 7 6 5 6 6 6
5 5 4 6 5 6 7 8 4 7 6 4 6 9 3 4 3 3 4 6 7 6 9 8 8 8 7 7 5 6 6 3 1 0 1 1 3 5 5 5 7 8 9 10 10 9 9 10 10 10 11 12 13 13 12 11 11 11 13 13 13 11 11 11 13 12 12 11 11 10 9 9 10 9 9 9 9 9 9 9 9 9 8 8 8 7 8 7 7 8 8 7 8 8 8 8 7
Wind_Direction
186 208 155 160 244 231 243 205 229 158 218 104 108 128 86 89 105 117 104 145 121 117 98 132 133 143 28 81 51 35 25 134 14 314 80 112 139 128 141 129 126 124 117 120 127 130 130 127 127 136 145 153 144 125 125 127 128 126 127 128 127 124 119 124 136 171 198 139 131 126 122 117 115 115 115 114 106 100 106 108 110 110 108 107 108 105 102 96 96 91 93 95 97 97 96 96 100
184 179 182 141 225 249 184 265 280 136 134 107 83 96 105 113 164 106 124 106 102 132 134 128 137 99 24 319 5 134 87 46 60 92 94 119 125 127 131 134 135 124 115 119 125 124 118 116 118 123 127 130 125 125 131 129 132 132 133 132 126 124 120 124 125 111 168 139 133 127 121 117 117 114 112 111 112 113 108 111 110 109 108 112 110 105 102 104 101 96 89 86 88 95 93 92 94
179 191 187 209 215 241 348 220 220 129 132 107 90 91 128 120 103 94 83 97 117 137 134 129 113 117 133 203 117 333 104 68 89 102 110 132 128 128 136 134 126 118 117 118 118 117 114 112 117 123 124 120 124 133 131 130 134 137 136 129 132 128 124 120 111 97 60 147 134 128 123 119 114 110 107 105 111 116 118 112 112 112 112 110 108 106 103 102 100 98 95 92 92 95 94 93 95
183 226 261 247 214 199 233 206 258 107 90 97 113 111 106 103 99 99 92 114 133 142 140 134 128 40 306 113 59 113 94 85 80 116 129 155 128 136 138 129 126 127 120 123 120 113 121 119 122 121 124 124 128 133 134 134 136 139 138 133 125 121 124 115 108 93 119 283 142 128 122 119 117 112 110 107 120 110 111 113 107 109 111 111 109 109 110 107 104 99 99 97 96 95 98 95 95
207 197 272 260 282 199 272 247 169 265 102 100 110 114 100 104 113 111 115 133 141 141 138 129 109 102 69 46 25 14 67 93 111 121 128 119 128 134 135 132 136 128 124 122 121 113 115 116 121 126 128 126 130 139 135 133 135 138 128 123 125 119 118 133 135 126 100 191 149 128 123 119 116 114 116 129 119 113 110 104 107 110 112 110 110 110 106 103 100 98 98 97 97 98 98 97 92
208 253 202 250 270 355 256 198 151 77 61 43 121 115 111 111 122 121 129 137 136 144 129 131 70 143 109 50 17 77 107 140 118 121 121 126 133 134 131 142 135 129 121 123 118 125 127 122 123 122 126 129 133 140 131 136 129 123 124 121 113 112 104 103 125 136 195 203 127 121 117 115 113 118 121 121 116 111 95 112 109 110 108 110 111 110 107 105 103 101 98 98 97 93 90 89 89
243 224 207 214 255 221 265 101 82 96 80 10 101 118 116 114 123 131 132 136 133 124 149 109 113 123 115 116 93 60 59 108 143 120 126 127 129 132 139 138 132 122 125 128 127 119 111 119 121 123 130 128 131 143 142 139 133 126 126 120 105 86 100 125 141 179 102 80 64 92 105 115 116 114 112 111 102 109 119 103 101 106 110 113 114 111 108 106 103 101 102 95 88 80 80 83 83
278 272 107 242 188 210 222 83 78 51 99 54 84 119 116 126 136 137 146 145 146 164 162 143 94 72 78 261 82 78 87 54 98 117 123 129 131 136 142 135 133 131 129 127 125 116 116 119 124 123 125 134 148 156 144 141 131 123 120 116 120 112 115 127 160 145 152 149 166 129 132 118 115 116 118 110 108 110 107 110 113 118 112 116 116 110 108 109 107 106 102 103 96 85 79 79 74
214 263 222 263 216 232 125 82 88 61 102 110 82 72 109 131 148 146 150 131 140 155 155 151 120 129 97 96 84 88 86 104 108 118 129 129 135 138 141 139 136 134 138 134 129 134 130 134 136 136 133 144 147 147 112 134 137 127 119 119 127 121 136 163 167 153 148 151 145 102 109 114 116 116 114 110 109 106 109 118 132 130 129 129 121 115 114 111 108 106 109 108 106 105 96 84 79
241 268 188 291 319 162 125 122 134 99 104 87 114 125 129 136 140 160 134 141 139 148 136 114 108 104 122 106 117 128 104 117 124 128 129 134 133 139 142 140 134 138 137 132 139 134 125 135 140 140 142 141 142 140 118 126 145 138 131 127 116 149 147 165 153 147 140 130 142 118 118 113 112 110 115 114 112 111 113 121 124 129 133 130 125 119 114 113 109 108 113 114 112 106 103 95 86
261 181 306 256 207 140 158 112 105 134 122 118 106 122 126 135 139 139 133 112 137 145 131 150 125 123 113 90 82 83 115 127 134 126 132 128 134 140 133 133 139 140 135 136 138 128 136 136 134 136 140 144 149 155 151 153 144 140 104 117 136 146 141 131 142 140 141 134 135 133 126 120 118 113 109 112 115 118 117 114 121 123 121 125 122 117 116 109 108 108 111 113 112 111 100 109 137
261 231 207 263 141 21 92 115 125 112 126 140 125 140 145 141 148 131 132 147 152 159 146 184 119 132 118 120 113 130 131 137 129 129 131 134 140 133 135 140 139 137 133 132 135 135 124 140 144 125 126 128 125 131 136 148 151 142 147 168 162 147 134 140 149 142 142 136 137 133 125 121 115 110 108 113 104 100 98 112 112 108 95 83 100 114 110 111 108 105 110 113 113 116 116 129 159
293 281 258 257 74 345 82 129 114 133 141 155 141 143 160 155 162 124 135 131 155 148 142 122 130 155 122 110 113 130 144 132 132 135 135 141 130 134 134 132 135 131 135 142 131 126 157 160 137 144 111 115 131 135 137 144 147 145 136 132 145 133 126 131 131 133 136 135 130 122 119 119 117 115 115 111 106 104 118 117 114 106 112 125 101 107 109 107 99 103 106 113 113 109 149 139 107
292 337 296 333 312 83 174 89 139 162 146 120 123 142 164 174 150 116 121 134 138 127 96 130 143 112 108 117 137 148 136 137 137 136 138 132 134 134 133 132 135 138 142 143 131 140 137 149 134 126 136 153 132 147 142 142 160 122 108 162 157 122 130 135 136 126 135 132 128 126 126 122 122 121 119 116 113 117 104 116 103 103 105 113 131 111 101 101 103 107 117 118 113 117 105 102 110
300 320 270 39 109 202 80 182 158 171 120 147 124 154 151 51 117 146 90 118 97 78 96 120 98 191 152 164 152 151 142 142 140 137 133 131 133 129 133 135 135 142 145 143 141 140 143 133 124 122 125 128 126 120 116 129 115 96 154 178 165 119 142 145 137 140 134 136 130 129 120 126 119 110 111 104 112 102 110 104 107 119 138 132 105 98 97 96 99 103 104 106 107 105 107 103 109
325 276 265 212 125 257 131 252 134 204 119 148 138 151 143 110 135 142 50 351 116 133 177 120 212 360 141 170 150 136 140 141 137 136 132 131 129 131 132 143 144 139 134 150 135 145 142 127 113 117 121 118 123 120 126 127 122 124 185 158 135 143 156 154 149 142 136 137 133 132 119 113 114 119 107 106 109 124 123 108 110 117 127 106 96 94 92 93 99 102 105 110 106 105 111 105 103
279 298 250 191 119 245 106 216 153 55 99 122 143 159 160 138 112 72 99 166 132 115 97 113 111 207 155 107 129 133 139 135 141 139 136 134 147 142 142 147 148 145 158 144 149 154 139 133 132 125 121 118 128 132 132 128 124 141 158 140 140 158 145 140 145 143 136 136 141 121 121 124 126 114 120 126 126 117 114 124 129 113 119 98 94 93 93 97 98 105 108 107 117 123 133 139 120
253 243 278 100 77 69 65 1 71 159 192 139 164 176 166 149 153 127 145 126 114 127 122 98 93 78 100 115 128 133 135 143 147 148 145 145 155 145 154 154 171 160 159 152 157 161 154 140 141 133 125 125 129 128 128 139 129 158 147 140 152 145 144 146 153 146 140 136 132 133 108 104 76 98 104 123 114 123 129 121 112 122 128 97 99 101 101 101 102 102 111 116 117 163 198 185 162
275 344 300 62 24 78 18 10 24 180 149 141 167 179 182 161 156 157 172 152 154 141 138 133 112 111 118 129 131 136 144 147 154 152 149 151 155 151 156 153 168 161 155 161 155 153 153 140 130 131 120 125 123 123 126 125 145 153 140 141 150 152 143 145 143 142 135 134 130 115 145 107 115 116 129 123 110 121 123 130 137 177 108 112 109 106 109 112 114 126 136 148 167 202 218 131 161
41 298 7 72 39 59 60 35 56 72 98 165 168 174 198 145 165 164 191 159 173 160 150 148 136 134 138 137 140 142 148 151 157 154 153 152 150 154 150 160 158 166 163 163 144 154 157 140 128 116 122 125 129 126 127 128 131 146 111 128 132 142 137 141 147 146 136 136 128 120 132 123 121 114 117 120 129 141 138 160 190 126 124 121 141 142 143 137 145 153 166 185 203 193 139 180 114
66 267 5 65 38 332 89 49 33 72 214 181 181 166 175 169 159 175 169 167 179 174 170 158 148 146 145 147 147 148 150 154 158 156 150 149 153 153 155 156 158 158 152 149 149 149 147 141 131 123 125 126 127 127 128 131 138 139 131 142 160 161 147 177 151 156 138 146 137 132 140 147 137 132 153 146 141 144 153 160 149 153 139 136 196 136 148 149 190 144 161 199 142 151 146 114 91
279 2 7 347 4 280 65 1 347 279 203 200 175 178 178 151 169 188 174 179 140 171 159 156 144 149 151 152 152 152 154 156 157 157 152 157 154 148 148 151 142 147 140 166 152 152 158 138 129 132 130 122 122 125 120 124 135 128 138 139 149 148 149 155 150 152 145 159 146 145 141 150 146 151 166 159 167 178 151 155 147 136 139 130 190 138 121 145 136 143 142 108 109 98 96 60 44
266 131 50 47 15 314 17 327 332 270 202 202 186 187 153 174 175 185 182 126 50 99 149 143 143 149 151 150 153 155 156 159 157 160 155 156 153 149 153 151 153 154 164 152 162 155 146 150 128 136 121 120 118 118 123 128 126 130 136 144 141 133 148 153 153 148 141 143 156 152 155 148 147 154 154 161 143 140 146 155 135 131 138 144 146 118 127 123 111 117 112 121 100 79 93 116 201
292 349 29 76 2 317 319 293 287 257 231 210 200 158 172 181 179 172 180 93 82 112 133 144 139 146 151 155 160 157 156 159 158 154 161 152 151 151 153 153 154 138 158 150 167 162 165 143 128 129 120 127 122 128 129 133 137 140 131 134 136 137 150 145 142 138 141 154 155 157 159 148 145 147 143 146 148 149 146 124 132 138 137 134 129 133 129 125 127 116 96 90 76 48 45 40 30
233 238 49 34 294 5 326 312 280 267 239 211 159 172 192 163 189 163 152 115 121 136 144 137 143 149 156 158 160 157 156 158 156 154 153 144 146 141 151 149 147 149 153 160 159 165 165 130 148 139 130 125 130 133 133 133 139 143 147 145 136 148 145 148 142 152 156 151 147 156 161 148 150 145 147 145 144 131 123 135 143 138 133 129 142 123 116 123 121 108 93 107 88 31 37 66 339
310 64 89 347 4 343 358 302 267 261 210 199 194 173 72 33 24 160 135 131 144 140 140 145 148 154 157 161 160 159 160 159 155 155 150 149 146 150 156 159 151 163 150 157 162 161 160 155 154 135 133 124 123 132 126 127 132 140 135 136 135 154 147 140 149 153 146 147 148 153 144 156 145 142 136 130 129 131 132 133 135 131 135 141 135 122 125 135 115 114 103 63 51 24 12 63 321
34 118 67 40 24 9 20 340 302 285 230 174 193 104 74 38 6 135 155 149 149 149 145 146 156 157 159 159 162 163 163 160 160 152 152 154 152 157 158 158 168 149 150 158 153 161 149 174 141 128 123 126 130 120 125 128 134 135 131 134 143 141 135 148 151 145 149 147 141 143 145 156 143 134 129 133 133 134 136 141 142 145 145 122 125 135 112 87 72 75 53 39 42 22 358 48 349
159 147 127 128 74 48 33 36 51 86 27 218 111 97 92 70 13 265 187 167 163 155 150 149 158 159 159 157 162 167 165 161 157 157 161 164 162 165 161 164 167 151 157 158 145 164 166 168 137 138 135 129 122 118 128 129 133 131 132 138 134 128 146 141 140 139 139 136 141 146 146 141 131 119 127 136 132 142 143 143 144 149 122 128 128 96 99 91 110 93 93 37 358 328 11 74 15
171 197 244 136 177 52 29 24 39 101 108 141 118 114 122 152 194 110 195 170 171 160 152 153 156 158 162 157 160 173 165 163 161 166 168 165 157 160 160 166 161 158 156 152 147 169 161 163 129 144 134 134 133 126 128 128 134 136 137 134 130 134 141 139 136 134 133 136 137 142 136 131 139 134 130 134 151 150 137 153 139 130 125 124 111 88 100 162 144 147 117 169 32 305 66 78 288
221 216 267 194 195 46 30 68 70 89 98 143 161 148 146 162 144 192 183 167 171 166 158 155 156 161 161 164 161 170 169 165 171 167 164 155 161 154 156 161 158 157 152 150 156 163 154 147 149 144 137 142 138 130 128 131 135 130 135 129 129 142 138 135 132 129 134 137 138 139 138 136 135 124 133 147 166 140 143 151 132 120 114 104 118 150 148 123 102 86 73 53 71 336 64 55 58
247 338 251 318 324 45 47 50 84 79 119 148 211 147 150 154 152 161 172 171 179 170 161 160 159 163 163 171 168 170 169 181 172 166 164 155 158 151 151 150 164 153 156 162 159 153 159 156 156 138 145 137 146 132 142 130 140 138 136 137 135 143 135 139 135 133 137 137 140 137 140 134 133 131 134 147 154 153 156 145 145 115 81 110 129 101 256 125 124 141 66 6 12 32 11 93 43
232 246 291 26 28 87 68 68 66 101 138 167 300 103 129 155 178 142 172 186 188 177 168 164 165 166 167 174 176 174 172 180 180 169 164 163 159 154 151 151 163 160 161 157 153 157 160 152 169 147 146 146 143 140 139 134 137 134 128 133 134 146 141 135 140 139 137 141 142 136 137 136 137 135 137 165 162 179 142 146 116 92 111 139 85 95 232 144 95 28 36 359 27 10 323 103 101
214 267 14 354 65 119 145 77 90 112 141 195 186 104 130 121 232 163 189 192 192 189 174 173 167 172 170 173 183 178 172 177 185 179 168 171 161 159 154 158 160 166 159 160 158 161 160 147 179 153 154 144 146 143 143 137 138 135 141 147 135 152 148 138 144 138 140 144 144 135 141 142 139 142 146 160 193 163 152 150 131 116 109 78 79 170 175 110 318 94 55 18 3 339 332 46 83
191 315 353 19 27 79 62 121 129 140 199 150 205 173 108 145 201 172 179 192 195 199 182 181 175 174 175 176 183 181 180 181 184 185 176 178 160 165 158 158 157 169 154 165 165 164 168 152 173 153 143 150 147 147 147 150 142 139 146 134 147 158 148 142 137 142 146 133 140 133 139 147 145 148 153 162 248 157 120 42 66 80 84 82 81 116 238 106 110 357 34 19 4 333 355 8 31
8 345 306 128 139 93 60 62 75 189 172 294 117 49 125 141 172 174 182 185 199 204 191 186 184 178 179 182 183 182 187 185 181 185 179 177 165 166 160 160 160 169 165 162 165 163 164 159 156 148 155 154 146 148 149 145 139 151 140 146 142 146 147 134 136 146 145 152 139 133 148 157 144 156 153 165 196 172 135 94 80 72 76 83 159 191 159 80 25 16 352 18 325 348 348 357 17
9 347 334 288 15 354 47 92 165 259 235 222 209 272 134 154 158 172 176 186 197 207 202 195 196 182 186 186 184 187 189 188 179 176 184 175 176 165 165 163 162 167 170 154 163 165 165 163 159 157 164 154 148 154 162 163 159 162 156 148 151 154 148 142 151 150 152 154 131 149 154 152 146 155 160 160 174 186 72 115 91 133 101 109 45 346 77 138 46 356 5 355 333 325 124 329 31
301 210 257 338 354 111 111 83 67 46 284 243 341 257 237 186 172 169 179 181 195 203 201 198 199 194 191 191 188 191 186 194 175 176 180 181 175 166 169 164 165 165 166 160 169 168 171 169 164 165 166 158 160 163 168 171 161 163 162 168 155 154 153 151 164 156 159 149 142 147 155 156 154 160 159 166 159 135 196 107 132 171 131 86 112 45 49 25 24 329 335 295 318 1 18 311 62
289 293 274 181 210 139 37 57 94 56 300 58 280 280 253 213 174 177 177 184 194 198 198 199 196 199 197 195 193 191 184 194 174 176 180 183 181 169 169 172 172 165 167 167 175 172 172 173 170 168 166 168 168 169 166 171 169 172 170 171 162 152 155 172 158 168 165 134 144 146 173 145 157 166 157 162 159 176 174 171 151 168 141 98 32 34 26 56 344 312 343 271 226 16 360 3 27
241 261 288 273 149 92 91 94 73 97 250 312 330 292 265 198 190 183 189 194 196 197 201 197 198 197 198 198 195 190 191 189 181 178 182 183 183 176 176 178 174 171 171 173 174 173 172 174 173 170 171 172 171 168 173 174 176 173 185 165 176 155 164 172 158 157 167 148 157 164 163 154 171 170 168 168 176 184 186 173 171 144 141 92 159 186 164 142 273 343 283 12 334 194 265 87 24
251 228 230 234 80 257 161 341 98 144 279 317 310 295 275 202 185 190 194 203 196 197 199 202 203 202 200 199 194 194 194 191 187 183 182 184 182 183 181 179 179 176 175 176 175 174 175 173 173 175 172 177 172 166 180 175 173 170 188 176 168 169 165 159 152 158 173 160 163 164 171 169 186 180 177 185 175 177 172 180 166 143 139 100 237 86 268 181 184 223 308 51 329 304 80 60 27
225 252 265 262 220 238 315 106 167 204 220 257 275 261 242 205 197 191 193 192 189 189 193 202 203 213 208 206 202 194 202 193 193 188 186 183 185 185 186 183 180 184 182 177 179 173 178 173 172 175 174 177 174 168 178 170 162 173 171 169 176 158 166 172 179 176 176 175 178 175 171 182 182 197 180 185 178 155 150 175 151 148 135 218 249 194 215 214 42 132 77 253 26 349 354 15 60
244 225 247 280 349 288 50 263 255 238 176 238 327 296 150 118 178 202 168 180 191 184 190 198 200 202 208 207 206 199 202 199 200 195 192 187 187 185 187 186 189 188 190 180 184 173 175 171 170 173 174 177 177 171 176 175 173 176 174 173 178 180 178 185 188 182 180 178 189 174 170 184 186 199 190 202 159 157 155 170 178 235 193 153 204 317 355 227 192 243 105 336 76 56 348 328 22
254 237 205 226 262 290 253 253 274 260 318 92 251 300 315 177 152 181 166 175 192 188 201 201 200 202 204 210 205 204 201 199 199 202 197 194 187 191 189 191 196 195 190 185 185 172 173 168 170 174 174 177 177 172 175 179 180 185 186 186 185 186 186 185 194 190 184 178 191 174 172 182 188 208 197 194 174 165 175 180 205 248 219 192 197 212 222 231 159 118 53 64 16 33 356 352 309
245 98 207 153 209 228 251 274 267 298 348 232 213 268 288 267 104 107 160 174 186 198 205 206 207 206 209 210 204 202 205 203 197 200 200 200 190 196 193 192 199 198 189 186 185 172 172 168 169 174 173 177 177 170 177 182 183 186 190 197 189 194 191 184 183 193 191 183 188 191 183 190 184 215 220 179 209 191 202 203 214 249 255 243 228 226 248 266 32 69 85 47 31 20 360 337 343
339 44 235 230 215 235 245 266 267 325 322 289 199 174 249 230 113 120 168 187 183 202 213 208 210 215 211 212 212 202 205 204 205 197 198 201 195 196 195 197 199 199 189 187 187 173 169 169 168 172 173 176 176 174 179 184 188 186 191 194 195 200 203 185 189 192 195 196 195 199 202 199 186 200 222 217 202 219 205 225 224 246 239 236 235 234 231 176 216 44 20 214 214 178 259 37 306
212 281 273 166 162 193 248 264 287 295 283 275 209 209 266 19 54 36 207 235 164 198 217 223 218 218 213 213 215 212 201 204 207 204 199 198 200 198 197 198 199 197 191 189 188 176 169 169 171 173 174 179 177 177 183 185 189 188 194 198 195 197 194 189 194 185 193 191 202 196 196 216 211 196 201 216 218 217 220 221 234 227 231 234 247 276 284 238 215 213 242 254 5 319 337 256 257
88 200 177 165 186 184 197 251 246 269 254 259 340 266 268 253 104 112 58 51 29 349 62 155 198 211 221 214 212 212 207 201 204 206 201 199 200 201 200 200 198 196 196 189 190 182 175 173 172 176 177 180 178 181 185 187 192 193 196 196 196 193 189 188 187 186 188 190 202 196 195 199 219 215 208 192 211 217 215 224 237 227 244 230 243 241 233 236 208 204 209 142 232 264 263 275 268
206 195 193 198 176 198 232 221 246 266 251 59 304 322 269 260 121 74 48 16 3 341 308 278 269 253 222 215 215 215 210 205 201 205 206 202 201 203 201 202 197 195 195 191 194 185 185 177 175 177 179 182 181 183 188 191 194 196 199 196 197 196 194 190 191 191 194 196 202 205 206 201 208 207 218 209 204 213 211 219 229 236 233 237 229 239 249 252 256 247 232 227 218 220 255 262 278
214 212 188 225 163 245 216 214 228 226 250 325 305 300 268 236 89 21 7 18 14 1 322 303 291 261 258 239 219 210 214 205 201 201 205 205 203 201 202 201 198 193 196 195 197 191 189 185 178 179 180 183 183 185 189 194 197 198 199 198 199 199 198 200 196 199 199 202 209 207 196 207 203 217 211 217 210 217 207 213 230 234 234 236 253 274 266 261 283 275 269 249 245 245 238 243 247
217 210 219 233 213 213 240 216 234 242 200 149 343 360 243 268 108 58 32 22 6 2 336 330 301 275 237 227 221 207 210 210 204 202 203 202 203 201 203 202 194 194 198 196 199 197 190 188 186 185 183 183 183 189 189 194 199 200 199 200 197 198 203 202 202 206 203 205 208 213 208 201 202 212 211 209 225 214 214 207 215 226 233 240 234 237 251 259 250 262 252 256 253 239 265 262 260
220 215 221 245 262 245 236 222 224 232 232 206 64 255 292 258 135 325 35 16 19 5 5 339 314 293 246 217 226 203 201 209 205 203 204 201 200 201 199 196 196 198 200 199 198 194 192 190 187 190 186 186 185 189 192 195 198 201 200 203 201 200 202 204 207 211 207 205 209 204 212 215 210 207 214 210 214 229 226 218 212 224 218 224 227 231 237 231 235 242 254 255 271 260 253 265 264
199 213 240 247 245 262 266 344 283 244 238 233 197 230 319 24 350 52 346 27 26 13 14 4 351 341 198 175 187 196 205 205 209 205 205 206 201 198 198 196 197 199 199 200 196 191 193 191 189 192 193 189 188 189 193 197 199 200 202 203 204 204 205 206 204 207 211 215 207 216 200 215 230 213 210 215 209 215 220 221 214 219 222 216 217 223 235 240 224 236 241 242 242 245 239 241 253
126 214 218 252 2 287 281 231 266 277 275 252 235 242 34 77 177 86 5 28 29 19 18 15 15 5 24 131 142 191 212 219 212 209 207 207 206 200 200 200 202 203 200 199 194 191 193 190 191 192 195 195 194 193 195 197 198 202 202 203 205 205 207 209 205 202 208 206 213 211 208 211 214 224 222 208 216 206 217 220 224 226 204 217 220 222 231 230 234 238 235 235 247 255 252 252 267
212 230 190 350 274 306 277 265 173 245 254 223 197 236 202 229 180 322 36 16 22 19 18 20 26 28 14 104 152 172 168 86 276 226 213 208 206 203 204 206 209 206 202 197 193 195 192 194 192 192 193 199 201 198 199 198 198 203 205 206 207 211 210 213 214 207 207 208 206 214 219 211 217 214 217 226 206 204 203 212 226 228 229 212 221 226 220 224 225 236 239 237 244 253 254 254 257
301 347 94 233 194 216 194 270 243 230 228 249 209 207 243 243 350 30 26 19 13 15 7 8 24 16 18 13 41 133 145 119 296 192 205 210 208 209 205 212 209 207 207 201 195 195 192 196 199 198 198 200 204 202 201 201 200 204 206 208 209 210 216 216 217 216 211 211 212 206 216 218 215 213 210 216 219 217 206 205 214 223 215 223 218 226 224 228 225 233 237 236 227 224 238 245 247
299 230 204 278 270 270 238 231 294 312 275 265 252 221 253 35 81 358 17 11 14 11 356 350 6 9 356 356 356 344 184 169 149 288 253 221 212 214 222 220 215 211 208 209 204 200 201 199 198 202 202 204 205 206 201 204 203 206 207 206 210 213 214 220 220 217 216 213 213 215 211 213 216 217 208 203 216 221 216 213 207 213 219 215 219 219 222 217 222 233 238 239 236 219 228 236 247
217 226 229 209 247 345 289 264 249 249 280 264 270 255 187 126 86 23 29 22 21 10 336 339 354 344 351 1 345 351 336 210 170 169 275 324 293 222 214 212 216 214 215 218 215 211 212 199 203 201 199 200 204 206 205 204 206 207 209 210 209 209 215 216 221 218 219 218 217 218 217 219 209 215 215 208 209 217 214 217 226 222 220 216 222 229 226 227 222 225 230 243 256 254 245 245 246
285 273 272 291 253 224 251 240 185 259 246 248 253 260 77 76 78 11 32 46 22 10 335 353 356 336 349 343 355 335 327 340 32 166 184 252 311 284 251 221 213 210 211 207 210 208 205 201 203 197 197 200 205 207 207 203 207 207 212 212 216 212 212 218 221 220 219 221 221 217 220 221 220 210 215 218 214 211 210 215 218 217 223 220 217 220 232 229 225 228 233 233 230 231 235 246 251